"2009-02-09 00:00:30",613791,5.261,30.22,6.451,1.329,4.101,101.0344,1.938,3,84.5,0,109.7,13.53,2.70,352.2
"2009-02-09 00:01:00",613792,5.416,35.59,6.527,1.297,5.232,101.005,1.863,3.118,85.1,0,109.7,13.53,2.62,357.6
"2009-02-09 00:01:30",613793,5.894,37.6,5.448,1.132,6.088,100.984,1.81,3.029,85.4,0,109.7,13.53,2.57,359.6
"2009-02-09 00:02:00",613794,5.584,35.44,6.614,1.157,6.119,100.9727,1.781,3.034,85.8,0,109.7,13.53,2.54,357.4
"2009-02-09 00:02:30",613795,5.804,35.86,4.857,1.031,6.398,100.9552,1.737,2.944,85.9,0,109.7,13.53,2.49,357.9
"2009-02-09 00:03:00",613796,5.179,33.86,6.029,1.169,5.385,100.9504,1.724,2.953,86.1,0,109.7,13.53,2.48,355.9
"2009-02-09 00:03:30",613797,4.486,30.76,5.576,1.099,3.596,100.947,1.716,2.769,86.1,0,109.7,13.53,2.47,352.8
"2009-02-09 00:04:00",613798,4.792,34.65,6.553,1.19,5.164,100.9348,1.685,2.914,86.4,0,109.7,13.53,2.44,356.6
"2009-02-09 00:04:30",613799,5.16,37.16,6.105,1.225,5.843,100.9255,1.661,2.875,86.5,0,109.7,13.53,2.42,359.2
"2009-02-09 00:05:00",613800,5.484,38.3,6.222,1.169,6.342,100.917,1.639,2.871,86.6,0,109.7,13.53,2.40,0.3
"2009-02-09 00:05:30",613801,5.332,35.94,6.077,0.952,6.232,100.9255,1.661,2.856,86.7,0,109.7,13.53,2.42,357.9
"2009-02-09 00:06:00",613802,5.227,35.01,5.939,1.095,6.084,100.9275,1.666,2.877,86.7,0,109.7,13.53,2.42,357.0
"2009-02-09 00:06:30",613803,4.623,32.7,6.616,1.198,4.558,100.9227,1.654,2.701,86.5,0,109.7,13.53,2.41,354.7
"2009-02-09 00:07:00",613804,4.714,32.46,5.939,1.39,4.299,100.9248,1.659,2.735,86.6,0,109.7,13.53,2.42,354.5
"2009-02-09 00:07:30",613805,5.375,36.37,6.346,1.132,5.925,100.9276,1.666,2.834,86.6,0,109.7,13.53,2.42,358.4
"2009-02-09 00:08:00",613806,5.682,38.45,4.93,1.119,6.158,100.9186,1.643,2.853,86.7,0,109.7,13.53,2.40,0.5
"2009-02-09 00:08:30",613807,6.306,40,6.205,1.259,6.291,100.8996,1.595,2.748,86.7,0,109.7,13.53,2.35,2.0
"2009-02-09 00:09:00",613808,6.391,39.25,6.341,1.183,5.221,100.8988,1.593,2.74,86.7,0,109.7,13.53,2.35,1.2
"2009-02-09 00:09:30",613809,7.56,45.67,4.567,0.944,6.471,100.8892,1.568,2.694,86.8,0,109.7,13.53,2.33,7.7
"2009-02-09 00:10:00",613810,7.081,42.15,5.988,1.275,4.949,100.8683,1.515,2.678,86.9,0,109.7,13.53,2.27,4.2
"2009-02-09 00:10:30",613811,7.503,44.34,5.916,1.138,6.287,100.8666,1.51,2.716,87,0,109.7,13.53,2.27,6.3
"2009-02-09 00:11:00",613812,8.31,47.41,4.31,0.701,7.275,100.8674,1.513,2.75,87.1,0,109.7,13.53,2.27,9.4
"2009-02-09 00:11:30",613813,7.393,45.23,6.926,1.426,5.969,100.8703,1.52,2.692,87,0,109.7,13.53,2.28,7.2
"2009-02-09 00:12:00",613814,7.661,46.47,4.881,1.013,6.603,100.8706,1.521,2.694,86.9,0,109.6,13.53,2.28,8.5
"2009-02-09 00:12:30",613815,7.541,45.43,4.126,1.058,6.599,100.8785,1.541,2.71,86.9,0,109.7,13.53,2.30,7.4
"2009-02-09 00:13:00",613816,7.033,47.16,5.657,1.21,5.85,100.8969,1.588,2.696,86.8,0,109.7,13.53,2.35,9.2
"2009-02-09 00:13:30",613817,7.451,47.08,6.853,1.172,6.262,100.9077,1.615,2.719,86.7,0,109.7,13.54,2.37,9.1
"2009-02-09 00:14:00",613818,7.013,45.7,5.828,1.102,6.455,100.9079,1.616,2.716,86.5,0,109.7,13.54,2.37,7.7
"2009-02-09 00:14:30",613819,7.384,46.74,6.497,1.155,6.867,100.9113,1.625,2.755,86.3,0,109.7,13.54,2.38,8.7
"2009-02-09 00:15:00",613820,7.283,46.7,5.548,1.043,6.625,100.9176,1.64,2.752,86.2,0,109.7,13.54,2.40,8.7
"2009-02-09 00:15:30",613821,7.658,47.89,4.691,1.09,6.805,100.9314,1.676,2.843,86.1,0,109.7,13.54,2.43,9.9
"2009-02-09 00:16:00",613822,7.649,45.89,5.692,1.037,6.06,100.9445,1.709,2.723,85.8,0,109.7,13.54,2.47,7.9
"2009-02-09 00:16:30",613823,6.992,44.86,4.843,1.01,6.445,100.9456,1.712,2.839,85.7,0,109.7,13.54,2.47,6.9
"2009-02-09 00:17:00",613824,6.886,45.39,5.764,1.196,6.401,100.949,1.721,2.821,85.6,0,109.7,13.54,2.48,7.4
"2009-02-09 00:17:30",613825,7.233,45.19,6.794,1.218,6.709,100.9618,1.753,2.814,85.3,0,109.7,13.54,2.51,7.2
"2009-02-09 00:18:00",613826,6.901,43.22,5.951,1.162,5.919,100.9717,1.778,2.866,85.2,0,109.7,13.54,2.54,5.2
"2009-02-09 00:18:30",613827,6.314,42.85,5.742,1.127,7.264,100.981,1.802,2.909,85.1,0,109.7,13.54,2.56,4.8
"2009-02-09 00:19:00",613828,7.109,45.72,5.332,1.009,6.278,100.9844,1.811,2.831,84.9,0,109.7,13.54,2.57,7.7
"2009-02-09 00:19:30",613829,6.693,43.39,6.533,1.249,5.903,100.9847,1.812,2.943,84.8,0,109.6,13.54,2.57,5.4
"2009-02-09 00:20:00",613830,7.117,45.88,5.313,1.026,6.548,100.9844,1.811,2.893,84.5,0,109.7,13.54,2.57,7.9
"2009-02-09 00:20:30",613831,7.108,47.56,5.45,1.108,6.82,100.9844,1.811,2.881,84.4,0,109.7,13.54,2.57,9.6
"2009-02-09 00:21:00",613832,6.979,46.36,5.878,1.044,6.346,100.9844,1.811,2.906,84.4,0,109.7,13.54,2.57,8.4
"2009-02-09 00:21:30",613833,6.904,45.57,5.311,1.072,6.557,100.9844,1.811,2.899,84.3,0,109.7,13.54,2.57,7.6
"2009-02-09 00:22:00",613834,6.63,43.76,6.705,1.182,6.543,100.9861,1.815,2.931,84.2,0,109.7,13.53,2.57,5.8
"2009-02-09 00:22:30",613835,5.748,40.08,7.474,1.515,5.645,101.0014,1.854,2.984,84.1,0,109.6,13.53,2.61,2.1
"2009-02-09 00:23:00",613836,6.303,42.75,5.736,1.099,6.641,101.009,1.874,2.873,84,0,109.7,13.53,2.63,4.8
"2009-02-09 00:23:30",613837,5.991,41.23,5.588,1.056,5.81,101.0124,1.882,2.956,84,0,109.7,13.53,2.64,3.2
"2009-02-09 00:24:00",613838,7.882,51.91,4.514,0.7,7.494,101.0127,1.883,2.971,83.9,0,109.6,13.53,2.64,13.9
"2009-02-09 00:24:30",613839,7.58,52.97,5.218,1.092,6.209,101.0025,1.857,2.975,83.8,0,109.6,13.53,2.62,15.0
"2009-02-09 00:25:00",613840,7.664,54.06,5.943,1.116,6.203,100.9844,1.811,3.001,83.9,0,109.6,13.53,2.57,16.1
"2009-02-09 00:25:30",613841,8.14,56.1,4.581,0.671,7.034,100.9824,1.806,2.962,83.8,0,109.7,13.54,2.56,18.1
"2009-02-09 00:26:00",613842,7.715,56.28,5.646,1.076,6.395,100.9618,1.753,2.87,83.7,0,109.6,13.54,2.51,18.3
"2009-02-09 00:26:30",613843,7.312,54.15,6.305,1.197,6.006,100.9504,1.724,2.889,83.8,0,109.6,13.54,2.48,16.2
"2009-02-09 00:27:00",613844,7.565,53.56,5.621,1.065,6.331,100.9473,1.716,2.915,83.8,0,109.6,13.54,2.47,15.6
"2009-02-09 00:27:30",613845,7.378,52.59,5.329,1.109,6.165,100.9394,1.696,2.859,83.8,0,109.6,13.54,2.45,14.6
"2009-02-09 00:28:00",613846,7.539,51.76,4.784,1.032,6.748,100.9287,1.669,2.824,83.9,0,109.6,13.54,2.43,13.8
"2009-02-09 00:28:30",613847,7.691,51.61,4.277,0.782,7.011,100.9236,1.656,2.865,83.9,0,109.6,13.54,2.41,13.6
"2009-02-09 00:29:00",613848,7.126,48.06,5.993,1.156,6.368,100.9247,1.659,2.828,83.8,0,109.6,13.54,2.42,10.1
"2009-02-09 00:29:30",613849,6.875,46.07,6.444,1.143,6.143,100.925,1.659,2.808,83.9,0,109.6,13.54,2.42,8.1
"2009-02-09 00:30:00",613850,7.101,46.05,5.347,1.047,6.479,100.9264,1.663,2.856,83.9,0,109.6,13.54,2.42,8.0
"2009-02-09 00:30:30",613851,6.946,44.33,5.753,1.08,6.463,100.9258,1.662,2.823,83.8,0,109.6,13.54,2.42,6.3
"2009-02-09 00:31:00",613852,6.601,43.71,5.932,1.089,6.181,100.9244,1.658,2.836,83.7,0,109.6,13.55,2.42,5.7
"2009-02-09 00:31:30",613853,6.434,42.89,5.033,1.023,6.847,100.9295,1.671,2.786,83.6,0,109.6,13.55,2.43,4.9
"2009-02-09 00:32:00",613854,5.469,39.81,5.877,1.206,5.973,100.938,1.693,2.847,83.7,0,109.6,13.55,2.45,1.8
"2009-02-09 00:32:30",613855,4.738,36.11,6.476,1.246,4.764,100.9422,1.703,2.678,83.5,0,109.6,13.55,2.46,358.1
"2009-02-09 00:33:00",613856,4.904,37.7,6.161,1.186,5.564,100.9406,1.699,2.783,83.5,0,109.6,13.55,2.46,359.7
"2009-02-09 00:33:30",613857,4.974,37.62,6.439,1.191,5.563,100.9278,1.667,2.845,83.5,0,109.6,13.55,2.42,359.6
"2009-02-09 00:34:00",613858,6.213,41.33,5.751,0.999,5.95,100.9227,1.654,2.735,83.5,0,109.6,13.55,2.41,3.3
"2009-02-09 00:34:30",613859,6.313,40.17,6.122,1.133,5.537,100.9185,1.643,2.823,83.8,0,109.6,13.55,2.40,2.2
"2009-02-09 00:35:00",613860,6.947,43.12,5.523,1.065,6.258,100.8925,1.577,2.777,84,0,109.6,13.55,2.33,5.1
"2009-02-09 00:35:30",613861,6.805,42.44,6.284,1.165,5.305,100.8874,1.564,2.714,84.1,0,109.6,13.55,2.32,4.4
"2009-02-09 00:36:00",613862,7.547,46.64,4.086,0.683,6.803,100.8834,1.553,2.767,84.3,0,109.6,13.55,2.31,8.6
"2009-02-09 00:36:30",613863,6.8,44,5.996,1.169,5.714,100.8752,1.533,2.71,84.3,0,109.6,13.55,2.29,6.0
"2009-02-09 00:37:00",613864,7.189,46.95,4.288,0.865,6.826,100.8716,1.523,2.731,84.3,0,109.6,13.55,2.28,9.0
"2009-02-09 00:37:30",613865,6.497,44.55,5.913,1.149,5.798,100.8761,1.535,2.597,84.1,0,109.6,13.54,2.29,6.5
"2009-02-09 00:38:00",613866,6.528,44.27,6.283,1.206,5.656,100.8784,1.541,2.711,84.1,0,109.6,13.55,2.30,6.3
"2009-02-09 00:38:30",613867,7.063,47.23,5.493,1.061,5.884,100.8776,1.538,2.669,84.1,0,109.6,13.54,2.30,9.2
"2009-02-09 00:39:00",613868,6.998,47.42,4.579,1.086,6.33,100.8796,1.544,2.714,84.2,0,109.6,13.54,2.30,9.4
"2009-02-09 00:39:30",613869,7.19,46.99,5.74,1.134,5.701,100.8688,1.516,2.687,84.3,0,109.6,13.54,2.27,9.0
"2009-02-09 00:40:00",613870,7.336,47.51,5.142,1.054,6.234,100.866,1.509,2.713,84.5,0,109.6,13.54,2.27,9.5
"2009-02-09 00:40:30",613871,7.756,48.28,5.474,1.122,6.127,100.8564,1.484,2.654,84.6,0,109.6,13.54,2.24,10.3
"2009-02-09 00:41:00",613872,8.08,49.16,5.613,0.988,6.473,100.836,1.432,2.584,84.8,0,109.6,13.54,2.19,11.2
"2009-02-09 00:41:30",613873,8.03,49.2,5.728,1.001,6.062,100.8309,1.419,2.588,85,0,109.6,13.54,2.18,11.2
"2009-02-09 00:42:00",613874,8.8,49.08,5.718,0.933,6.326,100.8106,1.368,2.602,85.3,0,109.6,13.55,2.12,11.1
"2009-02-09 00:42:30",613875,9.02,50.9,3.842,0.728,6.525,100.7961,1.331,2.564,85.7,0,109.6,13.55,2.09,12.9
"2009-02-09 00:43:00",613876,9.17,50.74,3.155,0.469,6.633,100.7661,1.254,2.55,86,0,109.6,13.55,2.01,12.7
"2009-02-09 00:43:30",613877,9.16,49.46,3.526,0.64,6.617,100.7611,1.241,2.51,86.2,0,109.6,13.56,2.00,11.5
"2009-02-09 00:44:00",613878,8.68,49.96,2.646,0.661,6.87,100.7384,1.183,2.482,86.4,0,109.6,13.55,1.94,12.0
"2009-02-09 00:44:30",613879,8.68,49.33,3.314,0.67,6.54,100.7305,1.163,2.455,86.6,0,109.6,13.55,1.92,11.3
"2009-02-09 00:45:00",613880,8.42,48.67,3.365,0.676,6.525,100.7316,1.166,2.444,86.7,0,109.6,13.55,1.92,10.7
"2009-02-09 00:45:30",613881,8.4,48.91,3.359,0.687,6.213,100.7316,1.166,2.412,86.8,0,109.6,13.55,1.92,10.9
"2009-02-09 00:46:00",613882,8.19,48.97,1.784,0.718,6.288,100.7257,1.151,2.404,86.9,0,109.6,13.55,1.91,11.0
"2009-02-09 00:46:30",613883,8.12,48.39,2.879,0.729,6.161,100.726,1.152,2.377,87,0,109.6,13.55,1.91,10.4
"2009-02-09 00:47:00",613884,8.01,48.56,2.768,0.758,6.135,100.724,1.147,2.391,87.1,0,109.6,13.55,1.90,10.6
"2009-02-09 00:47:30",613885,7.877,48.26,2.571,0.777,6.105,100.7252,1.15,2.371,87.1,0,109.6,13.55,1.91,10.3
"2009-02-09 00:48:00",613886,7.465,46.3,2.941,0.676,6.078,100.7266,1.153,2.367,87.1,0,109.6,13.55,1.91,8.3
"2009-02-09 00:48:30",613887,7.247,45.58,2.585,0.762,5.855,100.7283,1.158,2.352,87.1,0,109.6,13.55,1.91,7.6
"2009-02-09 00:49:00",613888,6.68,43.71,3.469,0.838,5.737,100.73,1.162,2.379,87.1,0,109.6,13.55,1.92,5.7
"2009-02-09 00:49:30",613889,5.787,38.09,6.061,1.151,3.644,100.7178,1.131,2.141,87,0,109.6,13.55,1.89,0.1
"2009-02-09 00:50:00",613890,5.382,35.92,5.886,1.159,2.82,100.7048,1.098,2.046,87,0,109.6,13.56,1.85,357.9
"2009-02-09 00:50:30",613891,6.389,40.48,6.358,1.25,4.651,100.7051,1.098,2.185,87.2,0,109.6,13.56,1.85,2.5
"2009-02-09 00:51:00",613892,7.322,45.34,4.194,0.643,7.303,100.7158,1.126,2.348,87.4,0,109.6,13.56,1.88,7.3
"2009-02-09 00:51:30",613893,7.079,45.23,3.579,0.513,7.446,100.7331,1.17,2.361,87.4,0,109.6,13.56,1.93,7.2
"2009-02-09 00:52:00",613894,6.814,45.22,2.678,0.643,7.323,100.7393,1.186,2.356,87.2,0,109.6,13.56,1.94,7.2
"2009-02-09 00:52:30",613895,6.969,45.16,3.757,0.784,7.071,100.7444,1.199,2.397,87,0,109.6,13.56,1.95,7.2
"2009-02-09 00:53:00",613896,6.136,41.41,6.327,1.262,4.938,100.7668,1.256,2.353,86.8,0,109.6,13.56,2.01,3.4
"2009-02-09 00:53:30",613897,5.253,37.71,5.737,1.008,3.557,100.7738,1.274,2.275,86.5,0,109.6,13.56,2.03,359.7
"2009-02-09 00:54:00",613898,6.06,40.76,6.696,1.284,4.578,100.7756,1.278,2.258,86.3,0,109.6,13.56,2.03,2.8
"2009-02-09 00:54:30",613899,5.988,39.89,5.843,1.194,4.926,100.7869,1.307,2.389,86.4,0,109.6,13.56,2.06,1.9
"2009-02-09 00:55:00",613900,7.409,46.78,3.179,0.718,7.203,100.7846,1.301,2.482,86.4,0,109.6,13.56,2.06,8.8
"2009-02-09 00:55:30",613901,7.531,46.67,2.673,0.752,7.223,100.7758,1.279,2.474,86.3,0,109.6,13.56,2.04,8.7
"2009-02-09 00:56:00",613902,7.277,45.11,3.433,0.631,7.058,100.777,1.282,2.475,86.4,0,109.5,13.56,2.04,7.1
"2009-02-09 00:56:30",613903,6.626,44.06,3.304,0.669,6.848,100.7767,1.281,2.475,86.5,0,109.5,13.56,2.04,6.1
"2009-02-09 00:57:00",613904,4.874,34.67,5.083,1.009,3.418,100.779,1.287,2.27,86.4,0,109.6,13.56,2.04,356.7
"2009-02-09 00:57:30",613905,5.681,38.67,6.539,1.246,4.183,100.7784,1.286,2.201,86.3,0,109.6,13.55,2.04,0.7
"2009-02-09 00:58:00",613906,5.332,37.57,5.514,1.039,3.76,100.7753,1.278,2.335,86.5,0,109.6,13.56,2.03,359.6
"2009-02-09 00:58:30",613907,6.94,44.56,4.067,0.682,6.905,100.7688,1.261,2.448,86.6,0,109.6,13.56,2.02,6.6
"2009-02-09 00:59:00",613908,6.975,44.62,4.296,0.656,7.233,100.7515,1.217,2.432,86.6,0,109.6,13.56,1.97,6.6
"2009-02-09 00:59:30",613909,6.876,45.35,3.809,0.666,6.896,100.7462,1.203,2.423,86.7,0,109.6,13.56,1.96,7.3
"2009-02-09 01:00:00",613910,5.223,37.55,6.819,1.344,4.448,100.7465,1.204,2.263,86.6,0,109.6,13.56,1.96,359.5
"2009-02-09 01:00:30",613911,4.365,35.18,5.983,1.076,3.586,100.7465,1.204,2.223,86.7,0,109.6,13.56,1.96,357.2
"2009-02-09 01:01:00",613912,4.782,37.3,6.125,1.232,4.525,100.7467,1.205,2.252,86.8,0,109.5,13.56,1.96,359.3
"2009-02-09 01:01:30",613913,4.807,37.41,6.108,1.097,5.244,100.7465,1.204,2.25,86.9,0,109.6,13.57,1.96,359.4
"2009-02-09 01:02:00",613914,4.811,36.34,5.477,1.048,5.84,100.7467,1.205,2.404,87,0,109.6,13.57,1.96,358.3
"2009-02-09 01:02:30",613915,4.935,37.06,5.387,0.963,6.519,100.747,1.205,2.382,87,0,109.6,13.57,1.96,359.1
"2009-02-09 01:03:00",613916,4.648,35.11,5.949,1.162,4.649,100.747,1.205,2.225,86.9,0,109.6,13.57,1.96,357.1
"2009-02-09 01:03:30",613917,4.078,32.01,6.031,1.185,3.467,100.7456,1.202,2.133,86.8,0,109.6,13.57,1.96,354.0
"2009-02-09 01:04:00",613918,4.294,33.62,6.603,1.241,3.717,100.7306,1.164,2.249,87,0,109.6,13.57,1.92,355.6
"2009-02-09 01:04:30",613919,4.778,35.53,5.936,1.22,4.919,100.7148,1.123,2.317,87.2,0,109.6,13.57,1.88,357.5
"2009-02-09 01:05:00",613920,5.22,37.42,5.836,1.068,5.552,100.7131,1.119,2.286,87.3,0,109.6,13.57,1.87,359.4
"2009-02-09 01:05:30",613921,5.22,37.91,5.779,1.147,5.468,100.7049,1.098,2.247,87.4,0,109.6,13.57,1.85,359.9
"2009-02-09 01:06:00",613922,4.561,33.06,5.209,0.971,3.359,100.6819,1.039,2.172,87.5,0,109.6,13.57,1.79,355.1
"2009-02-09 01:06:30",613923,5.337,36.3,7.075,1.142,4.01,100.6709,1.011,2.124,87.7,0,109.6,13.57,1.77,358.3
"2009-02-09 01:07:00",613924,6.072,34.43,6.378,1.138,4.251,100.6404,0.933,2.114,88.1,0,109.5,13.57,1.69,356.4
"2009-02-09 01:07:30",613925,6.31,36.87,4.889,1.165,4.884,100.6038,0.84,2.132,88.6,0,109.6,13.57,1.60,358.9
"2009-02-09 01:08:00",613926,6.607,40.03,3.286,0.749,5.863,100.5753,0.767,2.107,89.1,0,109.6,13.57,1.52,2.0
"2009-02-09 01:08:30",613927,6.358,38.92,5.482,1.093,5.033,100.5487,0.699,2.002,89.5,0,109.6,13.57,1.45,0.9
"2009-02-09 01:09:00",613928,6.248,41.25,5.615,1.098,6.009,100.5407,0.679,1.984,90,0,109.6,13.57,1.43,3.2
"2009-02-09 01:09:30",613929,5.235,37.42,6.118,1.14,5.218,100.5362,0.668,1.947,90.3,0,109.6,13.57,1.42,359.4
"2009-02-09 01:10:00",613930,5.568,36.82,5.411,1.147,5.222,100.5368,0.669,1.85,90.5,0,109.6,13.56,1.42,358.8
"2009-02-09 01:10:30",613931,5.867,35.3,5.584,1.044,4.964,100.5192,0.624,1.857,90.8,0,109.6,13.57,1.38,357.3
"2009-02-09 01:11:00",613932,6.121,33.35,6.085,1.276,4.285,100.5073,0.594,1.793,90.9,0,109.6,13.56,1.35,355.4
"2009-02-09 01:11:30",613933,6.794,34.96,6.282,1.007,4.822,100.4813,0.528,1.782,91,0,109.6,13.56,1.28,357.0
"2009-02-09 01:12:00",613934,6.816,35.51,5.371,1.185,4.661,100.4476,0.442,1.749,91.3,0,109.6,13.57,1.20,357.5
"2009-02-09 01:12:30",613935,7.289,36.39,5.321,0.868,5.361,100.4168,0.363,1.722,91.6,0,109.6,13.56,1.12,358.4
"2009-02-09 01:13:00",613936,7.221,37.57,4.619,0.99,5.34,100.3848,0.282,1.657,91.8,0,109.6,13.57,1.03,359.6
"2009-02-09 01:13:30",613937,7.529,40.23,2.984,0.677,5.563,100.3662,0.234,1.613,92.2,0,109.6,13.56,0.99,2.2
"2009-02-09 01:14:00",613938,6.794,39.77,4.124,0.641,5.754,100.3472,0.186,1.569,92.5,0,109.6,13.56,0.94,1.8
"2009-02-09 01:14:30",613939,6.327,38.19,3.893,0.866,5.421,100.3401,0.168,1.547,92.8,0,109.6,13.57,0.92,0.2
"2009-02-09 01:15:00",613940,6.074,33.88,6.399,1.193,3.672,100.3353,0.155,1.303,93,0,109.6,13.57,0.91,355.9
"2009-02-09 01:15:30",613941,5.46,32.5,6.294,1.097,2.921,100.3231,0.124,1.316,93.3,0,109.6,13.57,0.88,354.5
"2009-02-09 01:16:00",613942,4.642,29.16,5.18,0.972,2.329,100.3186,0.113,1.251,93.5,0,109.6,13.57,0.87,351.2
"2009-02-09 01:16:30",613943,6.392,39.54,3.631,0.65,6.157,100.3195,0.115,1.415,93.9,0,109.6,13.57,0.87,1.5
"2009-02-09 01:17:00",613944,6.549,39.33,3.909,0.53,6.436,100.3263,0.132,1.432,94.2,0,109.6,13.57,0.88,1.3
"2009-02-09 01:17:30",613945,6.16,38.82,1.71,0.843,5.927,100.3353,0.155,1.437,94.4,0,109.6,13.57,0.91,0.8
"2009-02-09 01:18:00",613946,5.156,31.63,6.634,1.223,3.862,100.3421,0.173,1.343,94.5,0,109.6,13.57,0.93,353.6
"2009-02-09 01:18:30",613947,5.281,30.16,5.987,1.092,3.208,100.3514,0.196,1.282,94.5,0,109.6,13.57,0.95,352.2
"2009-02-09 01:19:00",613948,4.328,26.65,5.115,0.851,2.442,100.3605,0.22,1.294,94.7,0,109.6,13.58,0.97,348.6
"2009-02-09 01:19:30",613949,5.521,34.6,5.184,1.03,5.858,100.3656,0.233,1.441,94.9,0,109.6,13.58,0.99,356.6
"2009-02-09 01:20:00",613950,5.716,34.17,4.936,0.949,5.903,100.3738,0.253,1.423,94.9,0,109.6,13.58,1.01,356.2
"2009-02-09 01:20:30",613951,5.568,35.14,5.122,0.904,5.955,100.3891,0.292,1.446,94.9,0,109.6,13.58,1.05,357.1
"2009-02-09 01:21:00",613952,5.057,34.88,6.071,1.181,4.928,100.4021,0.326,1.449,94.9,0,109.6,13.58,1.08,356.9
"2009-02-09 01:21:30",613953,3.597,26.67,2.35,0.609,1.711,100.4086,0.342,1.31,94.7,0,109.6,13.58,1.10,348.7
"2009-02-09 01:22:00",613954,4.643,32.15,6.425,1.198,3.334,100.4075,0.339,1.251,94.6,0,109.6,13.58,1.09,354.1
"2009-02-09 01:22:30",613955,3.787,28.36,5.045,0.889,2.364,100.4131,0.354,1.355,94.6,0,109.6,13.59,1.11,350.4
"2009-02-09 01:23:00",613956,5.342,37.69,4.565,0.821,5.992,100.427,0.389,1.501,94.7,0,109.6,13.58,1.14,359.7
"2009-02-09 01:23:30",613957,5.127,37.37,5.198,0.955,6.054,100.4392,0.42,1.544,94.6,0,109.6,13.59,1.17,359.4
"2009-02-09 01:24:00",613958,4.903,36.07,5.687,1.152,4.828,100.4465,0.439,1.507,94.5,0,109.6,13.59,1.19,358.1
"2009-02-09 01:24:30",613959,4.791,36.08,6.091,1.244,4.424,100.4508,0.45,1.499,94.3,0,109.6,13.59,1.20,358.1
"2009-02-09 01:25:00",613960,4.034,30.01,4.976,1.086,2.093,100.4536,0.457,1.363,94,0,109.6,13.59,1.21,352.0
"2009-02-09 01:25:30",613961,4.5,34.04,6.316,1.249,4.378,100.4593,0.472,1.549,94,0,109.6,13.59,1.23,356.0
"2009-02-09 01:26:00",613962,5.262,37.21,4.875,0.895,5.726,100.4641,0.484,1.628,94,0,109.6,13.58,1.24,359.2
"2009-02-09 01:26:30",613963,5.472,37.88,3.427,0.686,5.995,100.4774,0.518,1.652,93.9,0,109.6,13.58,1.27,359.9
"2009-02-09 01:27:00",613964,5.098,35.24,5.102,1.004,5.214,100.4817,0.529,1.538,93.6,0,109.6,13.58,1.28,357.2
"2009-02-09 01:27:30",613965,4.071,27.84,6.132,1.066,2.938,100.493,0.558,1.432,93.4,0,109.6,13.58,1.31,349.8
"2009-02-09 01:28:00",613966,4.79,27.95,6.247,1.209,3.965,100.4933,0.558,1.604,93.5,0,109.6,13.58,1.31,350.0
"2009-02-09 01:28:30",613967,4.531,25.36,6.279,1.137,4.244,100.4961,0.565,1.621,93.3,0,109.6,13.58,1.32,347.4
"2009-02-09 01:29:00",613968,5.439,30,3.279,0.771,6.022,100.5077,0.595,1.687,93.2,0,109.6,13.58,1.35,352.0
"2009-02-09 01:29:30",613969,4.599,22.81,6.127,1.158,5.555,100.5131,0.609,1.668,93.1,0,109.6,13.58,1.36,344.8
"2009-02-09 01:30:00",613970,3.599,13.54,6.944,1.175,3.23,100.5179,0.621,1.538,92.8,0,109.5,13.58,1.38,335.5
"2009-02-09 01:30:30",613971,3.74,12.64,6.294,1.231,3.298,100.5239,0.636,1.507,92.7,0,109.5,13.58,1.39,334.6
"2009-02-09 01:31:00",613972,3.196,10.22,5.526,1.068,3.125,100.5287,0.649,1.684,92.8,0,109.5,13.59,1.40,332.2
"2009-02-09 01:31:30",613973,3.304,8.03,6.097,1.191,3.31,100.5327,0.659,1.609,92.6,0,109.5,13.59,1.41,330.0
"2009-02-09 01:32:00",613974,3.817,10.25,6.353,1.158,4.792,100.5349,0.664,1.74,92.6,0,109.6,13.59,1.42,332.2
"2009-02-09 01:32:30",613975,3.803,10.23,5.149,1.149,5.056,100.5352,0.665,1.737,92.5,0,109.6,13.59,1.42,332.2
"2009-02-09 01:33:00",613976,2.196,4.695,3.988,0.828,1.861,100.5341,0.662,1.592,92.3,0,109.6,13.59,1.42,326.7
"2009-02-09 01:33:30",613977,1.954,4.069,3.683,0.305,1.683,100.5364,0.668,1.541,92.1,0,109.6,13.59,1.42,326.1
"2009-02-09 01:34:00",613978,2.956,5.725,7.195,1.228,3.297,100.5372,0.67,1.697,92.2,0,109.6,13.59,1.42,327.7
"2009-02-09 01:34:30",613979,3.776,10.15,6.015,1.117,5.043,100.5403,0.678,1.76,92.2,0,109.6,13.6,1.43,332.1
"2009-02-09 01:35:00",613980,4.067,8.39,5.89,1.066,4.959,100.546,0.693,1.782,92.1,0,109.6,13.59,1.45,330.4
"2009-02-09 01:35:30",613981,3.877,10.58,5.929,1.062,4.862,100.5505,0.704,1.739,92,0,109.6,13.59,1.46,332.6
"2009-02-09 01:36:00",613982,3.352,7.975,6.695,1.213,3.755,100.5525,0.709,1.676,91.9,0,109.6,13.59,1.46,330.0
"2009-02-09 01:36:30",613983,2.057,0.273,2.81,0.149,1.399,100.555,0.716,1.547,91.7,0,109.6,13.62,1.47,322.3
"2009-02-09 01:37:00",613984,2.767,4.247,6.364,1.161,2.793,100.5539,0.713,1.705,91.8,0,109.6,13.6,1.47,326.2
"2009-02-09 01:37:30",613985,3.881,9.01,6.041,1.095,4.867,100.5573,0.722,1.792,91.8,0,109.6,13.6,1.48,331.0
"2009-02-09 01:38:00",613986,4.381,11.31,3.711,0.674,5.98,100.5565,0.719,1.836,91.8,0,109.6,13.6,1.47,333.3
"2009-02-09 01:38:30",613987,3.832,9.6,6.187,1.01,4.613,100.5536,0.712,1.747,91.7,0,109.6,13.6,1.47,331.6
"2009-02-09 01:39:00",613988,3.271,6.926,7.149,1.241,3.722,100.5483,0.698,1.721,91.6,0,109.6,13.6,1.45,328.9
"2009-02-09 01:39:30",613989,2.019,1.456,2.734,0.159,1.405,100.5426,0.684,1.568,91.4,0,109.6,13.63,1.44,323.5
"2009-02-09 01:40:00",613990,2.844,7.506,5.81,1.172,2.657,100.5378,0.672,1.573,91.4,0,109.6,13.6,1.43,329.5
"2009-02-09 01:40:30",613991,3.694,12.76,6.531,1.105,5,100.5395,0.676,1.793,91.6,0,109.6,13.6,1.43,334.8
"2009-02-09 01:41:00",613992,3.874,10.6,6.65,1.045,5.03,100.5406,0.679,1.815,91.6,0,109.6,13.6,1.43,332.6
"2009-02-09 01:41:30",613993,3.389,6.232,6.741,1.205,3.659,100.5409,0.68,1.68,91.5,0,109.5,13.6,1.43,328.2
"2009-02-09 01:42:00",613994,3.592,7.931,7.281,1.234,4.011,100.5401,0.678,1.671,91.5,0,109.6,13.59,1.43,329.9
"2009-02-09 01:42:30",613995,3.633,0.744,6.024,1.413,3.43,100.5398,0.677,1.716,91.5,0,109.6,13.59,1.43,322.7
"2009-02-09 01:43:00",613996,4.539,358.2,6.494,1.202,3.561,100.5395,0.676,1.687,91.5,0,109.6,13.59,1.43,320.2
"2009-02-09 01:43:30",613997,5.244,356.9,6.132,1.284,4.126,100.5395,0.676,1.706,91.5,0,109.6,13.59,1.43,318.9
"2009-02-09 01:44:00",613998,6.244,358.1,5.454,0.845,5.336,100.5398,0.677,1.822,91.6,0,109.6,13.59,1.43,320.1
"2009-02-09 01:44:30",613999,6.363,0.746,3.307,0.829,5.771,100.533,0.659,1.842,91.6,0,109.6,13.59,1.41,322.7
"2009-02-09 01:45:00",614000,5.834,356.6,5.933,1.129,4.466,100.5324,0.658,1.707,91.5,0,109.6,13.59,1.41,318.6
"2009-02-09 01:45:30",614001,5.765,355.7,6.323,1.186,4.239,100.5211,0.629,1.755,91.6,0,109.6,13.59,1.38,317.7
"2009-02-09 01:46:00",614002,5.949,356.7,5.843,1.231,4.463,100.5092,0.599,1.712,91.5,0,109.6,13.59,1.35,318.7
"2009-02-09 01:46:30",614003,5.928,354.8,6.112,1.186,3.628,100.5078,0.595,1.637,91.5,0,109.6,13.59,1.35,316.8
"2009-02-09 01:47:00",614004,6.697,356.6,5.247,0.936,5.247,100.5052,0.589,1.773,91.7,0,109.6,13.59,1.34,318.6
"2009-02-09 01:47:30",614005,6.873,357.2,3.761,0.856,5.664,100.5064,0.592,1.798,91.8,0,109.6,13.6,1.35,319.2
"2009-02-09 01:48:00",614006,6.494,355.7,5.9,1.073,5.216,100.5081,0.596,1.763,91.8,0,109.6,13.6,1.35,317.7
"2009-02-09 01:48:30",614007,5.847,353.2,6.359,1.217,4.121,100.5064,0.592,1.564,91.6,0,109.6,13.6,1.35,315.2
"2009-02-09 01:49:00",614008,5.966,352.6,5.935,1.13,4.44,100.5053,0.589,1.59,91.7,0,109.6,13.6,1.34,314.6
"2009-02-09 01:49:30",614009,5.215,346.9,5.701,1.19,3.348,100.5064,0.592,1.649,91.8,0,109.6,13.6,1.35,308.9
"2009-02-09 01:50:00",614010,6.538,355.2,2.511,0.646,5.815,100.503,0.583,1.707,91.9,0,109.6,13.6,1.34,317.2
"2009-02-09 01:50:30",614011,6.046,354,6.156,1.069,4.469,100.499,0.573,1.729,92,0,109.6,13.6,1.33,316.0
"2009-02-09 01:51:00",614012,5.752,353.6,6.073,1.183,4.029,100.499,0.573,1.652,92,0,109.6,13.59,1.33,315.6